sat.trackr.live / text

‹ back to catalog

STARLINK-5561

NORAD 56337 · 2023-058W

PAYLOAD ACTIVE UNKNOWN

§ Identity

Operator
Country
US
Launch date
2023-04-27
Launch site
AFWTR
Launch vehicle
Mass (kg)
RCS (m²)

Purposes: comms

External: N2YO · Heavens-Above · Gunter

§ Orbital elements

Epoch: 2026-05-25T04:36:36.103392Z

Period
95.63 min
Inclination
97.4451°
Eccentricity
0.0003213
Mean motion
15.05837187 rev/d
Perigee alt
546.7 km
Apogee alt
551.2 km
Semi-major
6,927.1 km
B*
-2.6000e-3
RAAN
145.1197°
Arg perigee
122.0132°
Mean anomaly
238.1408°
Rev number
16,963

§ Raw data

STARLINK-55611 56337U 23058W   26145.19208453 -.00037568  00000+0 -26000-2 0  99922 56337  97.4451 145.1197 0003213 122.0132 238.1408 15.05837187169630

JSON: /api/v1/satellites/56337 · /tle

For live sub-satellite position, see the globe view (requires WebGL).

§ Visibility from observer

Set your observer location to see the next 7 days of passes ≥ 10°. The values pass through the URL so the page stays shareable.

No JS? Fill the form by hand. The geolocation button needs JavaScript.